When you browse on this site, cookies collect data to enhance your experience and personalize the content and advertising you see.
Visit our Privacy Policy to learn more. By continuing to use the site, you agree to this use of cookies and data.
  • In France
  • List of Countries
  • For 7 days
  • Water Temperature
  • Satellite Maps
  • Weather Map
  • Weather Widgets
  • user-avatar
    Login

    Hourly Weather Tyrgowishte

    Today, 22 March, Friday

    Time Temperature Precipitation Wind Pressure Humidity
    00:00 +8°C° 0 mm 1 mps 755 mmHg 72%
    01:00 +7°C° 0 mm 1 mps 755 mmHg 73%
    02:00 +7°C° 0 mm 1 mps 754 mmHg 71%
    03:00 +6°C° 0 mm 1 mps 754 mmHg 73%
    04:00 +6°C° 0 mm 1 mps 754 mmHg 74%
    05:00 +6°C° 0 mm 1 mps 754 mmHg 75%
    06:00 +7°C° 0 mm 1 mps 754 mmHg 73%
    07:00 +8°C° 0 mm 1 mps 754 mmHg 71%
    08:00 +8°C° 0 mm 1 mps 754 mmHg 68%
    09:00 +9°C° 0 mm 2 mps 754 mmHg 62%
    10:00 +10°C° 0 mm 2 mps 754 mmHg 56%
    11:00 +13°C° 0 mm 2 mps 754 mmHg 50%
    12:00 +14°C° 0 mm 2 mps 754 mmHg 48%
    13:00 +14°C° 0 mm 2 mps 753 mmHg 45%
    14:00 +15°C° 0 mm 2 mps 753 mmHg 43%
    15:00 +15°C° 0 mm 2 mps 752 mmHg 43%
    16:00 +14°C° 0 mm 3 mps 752 mmHg 44%
    17:00 +14°C° 0 mm 3 mps 751 mmHg 45%
    18:00 +14°C° 0 mm 2 mps 751 mmHg 49%
    19:00 +12°C° 0 mm 2 mps 751 mmHg 54%
    20:00 +11°C° 0 mm 1 mps 751 mmHg 59%
    21:00 +11°C° 0 mm 1 mps 751 mmHg 61%
    22:00 +10°C° 0 mm 1 mps 751 mmHg 63%
    23:00 +10°C° 0 mm 1 mps 751 mmHg 64%

    Tomorrow, 23 March, Saturday

    Time Temperature Precipitation Wind Pressure Humidity
    00:00 +9°C° 0 mm 1 mps 751 mmHg 66%
    01:00 +9°C° 0 mm 1 mps 751 mmHg 67%
    02:00 +9°C° 0 mm 1 mps 751 mmHg 69%
    03:00 +9°C° 0 mm 1 mps 751 mmHg 70%
    04:00 +9°C° 0 mm 1 mps 751 mmHg 71%
    05:00 +9°C° 0 mm 1 mps 750 mmHg 72%
    06:00 +10°C° 0 mm 1 mps 751 mmHg 71%
    07:00 +10°C° 0 mm 1 mps 751 mmHg 70%
    08:00 +11°C° 0 mm 1 mps 751 mmHg 69%
    09:00 +10°C° 0 mm 2 mps 751 mmHg 65%
    10:00 +12°C° 0 mm 2 mps 750 mmHg 61%
    11:00 +12°C° 0 mm 3 mps 750 mmHg 56%
    12:00 +12°C° 0 mm 3 mps 750 mmHg 56%
    13:00 +12°C° 0 mm 3 mps 750 mmHg 56%
    14:00 +12°C° 0 mm 3 mps 750 mmHg 55%
    15:00 +11°C° 0 mm 3 mps 750 mmHg 56%
    16:00 +11°C° 0 mm 3 mps 749 mmHg 56%
    17:00 +11°C° 0 mm 3 mps 749 mmHg 56%
    18:00 +10°C° 0 mm 2 mps 749 mmHg 57%
    19:00 +10°C° 0 mm 1 mps 750 mmHg 59%
    20:00 +9°C° 0 mm 1 mps 750 mmHg 60%
    21:00 +8°C° 0 mm 1 mps 750 mmHg 57%
    22:00 +8°C° 0 mm 1 mps 750 mmHg 53%
    23:00 +7°C° 0 mm 1 mps 751 mmHg 50%

    Day after tomorrow, 24 March, Sunday

    Time Temperature Precipitation Wind Pressure Humidity
    00:00 +7°C° 0 mm 1 mps 750 mmHg 48%
    01:00 +6°C° 0 mm 1 mps 750 mmHg 45%
    02:00 +5°C° 0 mm 0 mps 750 mmHg 43%
    03:00 +5°C° 0 mm 0 mps 750 mmHg 43%
    04:00 +4°C° 0 mm 0 mps 750 mmHg 43%
    05:00 +4°C° 0 mm 0 mps 749 mmHg 43%
    06:00 +5°C° 0 mm 0 mps 750 mmHg 42%
    07:00 +6°C° 0 mm 0 mps 750 mmHg 42%
    08:00 +6°C° 0 mm 0 mps 750 mmHg 41%
    09:00 +9°C° 0 mm 1 mps 750 mmHg 38%
    10:00 +9°C° 0 mm 2 mps 750 mmHg 36%
    11:00 +11°C° 0 mm 3 mps 750 mmHg 33%
    12:00 +12°C° 0 mm 3 mps 749 mmHg 32%
    13:00 +12°C° 0 mm 3 mps 749 mmHg 30%
    14:00 +13°C° 0 mm 3 mps 748 mmHg 29%
    15:00 +13°C° 0 mm 3 mps 748 mmHg 31%
    16:00 +13°C° 0 mm 3 mps 748 mmHg 32%
    17:00 +14°C° 0 mm 2 mps 747 mmHg 34%
    18:00 +12°C° 0 mm 2 mps 747 mmHg 38%
    19:00 +11°C° 0 mm 1 mps 747 mmHg 42%
    20:00 +9°C° 0 mm 0 mps 747 mmHg 46%
    21:00 +8°C° 0 mm 0 mps 747 mmHg 48%
    22:00 +9°C° 0 mm 1 mps 747 mmHg 50%
    23:00 +8°C° 0 mm 1 mps 747 mmHg 52%

    25 March, Monday

    Time Temperature Precipitation Wind Pressure Humidity
    00:00 +8°C° 0 mm 1 mps 747 mmHg 53%
    01:00 +8°C° 0 mm 1 mps 747 mmHg 54%
    02:00 +8°C° 0 mm 1 mps 746 mmHg 55%
    03:00 +7°C° 0 mm 1 mps 746 mmHg 55%
    04:00 +7°C° 0 mm 1 mps 746 mmHg 56%
    05:00 +7°C° 0 mm 1 mps 745 mmHg 56%
    06:00 +8°C° 0 mm 1 mps 745 mmHg 54%
    07:00 +9°C° 0 mm 1 mps 745 mmHg 52%
    08:00 +10°C° 0 mm 1 mps 745 mmHg 51%
    09:00 +13°C° 0 mm 2 mps 745 mmHg 45%
    10:00 +14°C° 0 mm 3 mps 744 mmHg 39%
    11:00 +17°C° 0 mm 3 mps 744 mmHg 33%
    12:00 +18°C° 0 mm 4 mps 743 mmHg 35%
    13:00 +18°C° 0 mm 4 mps 743 mmHg 37%
    14:00 +19°C° 0 mm 5 mps 742 mmHg 39%
    15:00 +19°C° 0 mm 4 mps 742 mmHg 42%
    16:00 +18°C° 0 mm 4 mps 742 mmHg 44%
    17:00 +18°C° 0 mm 3 mps 741 mmHg 47%
    18:00 +17°C° 0 mm 3 mps 741 mmHg 52%
    19:00 +15°C° 0 mm 2 mps 741 mmHg 58%
    20:00 +14°C° 0 mm 1 mps 741 mmHg 64%
    21:00 +13°C° 0 mm 1 mps 741 mmHg 66%
    22:00 +12°C° 0 mm 2 mps 741 mmHg 68%
    23:00 +12°C° 0 mm 2 mps 741 mmHg 71%

    26 March, Tuesday

    Time Temperature Precipitation Wind Pressure Humidity
    00:00 +10°C° 0 mm 2 mps 741 mmHg 70%
    01:00 +10°C° 0 mm 3 mps 741 mmHg 70%
    02:00 +8°C° 0 mm 4 mps 741 mmHg 70%
    03:00 +8°C° 0 mm 4 mps 741 mmHg 70%
    04:00 +7°C° 0 mm 5 mps 741 mmHg 71%
    05:00 +7°C° 0 mm 5 mps 741 mmHg 72%
    06:00 +7°C° 0 mm 6 mps 741 mmHg 69%
    07:00 +8°C° 0 mm 7 mps 741 mmHg 66%
    08:00 +8°C° 0 mm 7 mps 742 mmHg 64%
    09:00 +8°C° 0.2 mm 7 mps 742 mmHg 64%
    10:00 +8°C° 0.2 mm 7 mps 742 mmHg 64%
    11:00 +8°C° 0.2 mm 7 mps 742 mmHg 65%
    12:00 +8°C° 0.4 mm 7 mps 743 mmHg 67%
    13:00 +8°C° 0.4 mm 7 mps 743 mmHg 69%
    14:00 +9°C° 0.4 mm 7 mps 743 mmHg 71%
    15:00 +8°C° 0.5 mm 6 mps 743 mmHg 72%
    16:00 +7°C° 0.5 mm 6 mps 743 mmHg 74%
    17:00 +6°C° 0.5 mm 5 mps 744 mmHg 76%
    18:00 +5°C° 0 mm 4 mps 744 mmHg 78%
    19:00 +5°C° 0 mm 4 mps 745 mmHg 80%
    20:00 +4°C° 0 mm 3 mps 745 mmHg 82%
    21:00 +4°C° 0 mm 3 mps 745 mmHg 83%
    22:00 +4°C° 0 mm 3 mps 746 mmHg 85%
    23:00 +4°C° 0 mm 3 mps 746 mmHg 86%

    27 March, Wednesday

    Time Temperature Precipitation Wind Pressure Humidity
    00:00 +4°C° 0 mm 3 mps 746 mmHg 87%
    01:00 +4°C° 0 mm 4 mps 746 mmHg 87%
    02:00 +4°C° 0 mm 4 mps 747 mmHg 88%
    03:00 +4°C° 0.1 mm 4 mps 747 mmHg 89%
    04:00 +4°C° 0.1 mm 4 mps 747 mmHg 89%
    05:00 +4°C° 0.1 mm 4 mps 747 mmHg 90%
    06:00 +4°C° 0.2 mm 4 mps 748 mmHg 90%
    07:00 +3°C° 0.2 mm 5 mps 748 mmHg 90%
    08:00 +3°C° 0.2 mm 5 mps 749 mmHg 89%
    09:00 +5°C° 0.4 mm 5 mps 749 mmHg 87%
    10:00 +4°C° 0.4 mm 6 mps 749 mmHg 85%
    11:00 +4°C° 0.4 mm 6 mps 750 mmHg 83%
    12:00 +5°C° 0.1 mm 6 mps 750 mmHg 80%
    13:00 +5°C° 0.1 mm 6 mps 750 mmHg 78%
    14:00 +7°C° 0.1 mm 6 mps 750 mmHg 75%
    15:00 +5°C° 0.1 mm 6 mps 750 mmHg 77%
    16:00 +5°C° 0.1 mm 6 mps 750 mmHg 79%
    17:00 +5°C° 0.1 mm 6 mps 750 mmHg 81%
    18:00 +5°C° 0.1 mm 5 mps 751 mmHg 82%
    19:00 +5°C° 0.1 mm 5 mps 751 mmHg 83%
    20:00 +5°C° 0.1 mm 4 mps 751 mmHg 84%
    21:00 +4°C° 0 mm 3 mps 751 mmHg 85%
    22:00 +4°C° 0 mm 3 mps 752 mmHg 87%
    23:00 +4°C° 0 mm 2 mps 752 mmHg 88%
    Show more